Vorticity
8 9 8 7 5 4 3 3 3 4 5 6 7 7 7 7 7 6 6 6 7 7 6 6 5 5 5 6 7 8 9 11 10 9 8 8 7 6 6 6 8 8 6 6 8 11 14 12 6 11 17 15 17 19 16 9 7 8 9 12 14 19 22 20 19 18 23 25 21 20 18 11 14 25 23 20 15 10 13 16 12 8 9 6 3 7 9 15
7 8 9 8 6 4 3 4 3 4 4 6 7 7 7 7 7 6 6 6 6 6 5 6 5 6 7 7 8 9 10 10 9 8 9 9 6 6 5 7 9 5 6 10 10 13 15 8 7 17 16 13 17 18 12 7 10 9 10 13 12 20 22 16 17 19 23 24 20 21 22 13 8 18 23 20 17 11 10 14 16 10 9 8 4 6 9 14
8 8 9 8 7 5 4 4 4 4 4 5 6 7 7 7 6 6 6 5 5 5 5 6 6 7 8 8 9 9 10 9 8 9 9 7 5 4 5 8 6 5 10 12 12 15 12 6 12 19 12 14 18 15 11 8 11 9 11 15 10 16 19 13 11 14 17 20 20 16 22 17 8 15 18 20 20 12 9 12 16 12 8 9 5 4 10 8
8 8 9 9 7 6 4 4 4 4 5 5 6 7 7 7 6 5 5 5 5 5 5 6 7 8 8 9 10 9 9 9 9 9 8 5 4 4 5 7 4 8 13 10 15 15 7 7 17 17 10 16 17 13 12 9 10 11 15 14 11 14 18 17 13 14 15 20 22 14 19 15 13 23 12 18 28 13 10 12 12 13 9 8 7 4 11 8
8 8 8 9 8 7 5 5 5 4 5 5 6 7 8 6 5 5 5 5 5 5 6 7 7 8 9 10 10 8 8 10 9 8 7 5 5 5 5 6 5 12 12 10 18 12 4 10 19 15 11 17 15 14 15 11 10 13 17 13 13 16 17 22 21 21 18 17 20 18 21 11 17 30 10 19 31 12 11 13 10 13 10 7 8 6 9 10
8 8 8 8 8 7 6 5 5 5 5 5 6 7 7 5 5 5 5 5 5 5 6 7 8 8 9 10 10 9 8 9 8 8 7 5 6 5 5 5 8 14 9 11 18 9 5 13 20 14 9 16 14 14 14 11 12 14 19 15 14 17 17 22 21 20 18 16 19 20 22 12 20 27 12 24 27 12 13 13 11 11 11 7 7 9 8 11
8 8 8 8 9 8 6 6 5 5 6 5 7 8 6 5 5 5 6 5 5 5 6 7 7 8 9 10 9 8 9 9 8 9 7 5 6 4 5 7 11 14 7 10 17 9 5 12 22 14 7 15 14 12 12 12 15 15 19 17 17 20 18 18 14 13 17 19 20 19 21 17 24 22 15 28 23 13 12 11 14 10 10 7 7 10 6 11
9 8 7 8 9 8 7 6 6 6 6 6 7 7 6 6 6 6 6 5 4 5 6 7 7 8 9 10 8 7 10 10 8 9 7 5 4 4 6 8 13 13 5 7 14 12 6 11 22 14 7 13 14 13 11 13 14 12 16 17 19 22 20 17 14 14 14 18 19 18 20 19 27 23 19 27 18 15 13 10 15 10 10 7 7 11 7 11
9 9 7 7 9 9 8 6 6 6 7 7 7 6 6 6 5 6 6 4 4 4 6 7 7 9 9 8 8 8 10 8 8 8 7 5 3 4 6 9 15 12 3 4 12 13 6 11 21 15 9 11 13 13 11 13 11 10 11 12 15 15 18 23 23 19 15 20 20 18 18 21 29 24 21 23 16 16 13 11 15 11 10 8 9 10 8 9
8 9 8 7 8 9 9 7 6 6 7 8 7 6 7 6 5 6 6 3 4 5 6 7 7 9 8 7 8 9 9 7 7 8 6 4 2 4 5 9 16 13 4 3 11 15 7 10 19 16 10 10 12 11 13 14 8 9 8 10 17 10 11 20 19 17 18 20 21 21 18 22 28 20 22 21 16 23 16 10 14 12 12 9 10 9 7 10
8 9 8 7 8 8 9 8 7 6 7 8 7 6 7 6 6 6 5 4 4 5 7 7 8 8 7 8 9 8 8 6 7 7 4 3 2 4 5 7 14 13 6 3 10 15 8 10 18 17 11 10 11 8 13 15 8 8 5 8 15 6 5 12 12 13 16 17 22 25 18 23 25 12 22 17 11 29 20 11 15 11 12 11 10 11 9 9
8 8 8 8 7 8 9 9 8 7 7 8 7 6 6 6 6 6 4 4 5 6 7 8 8 8 7 8 8 8 8 6 6 6 3 2 3 4 5 6 11 14 8 4 11 14 8 9 16 18 13 10 11 6 9 15 12 10 8 9 16 17 13 13 19 16 10 16 21 20 14 24 24 7 18 15 6 24 18 12 19 12 11 13 10 11 12 8
8 8 7 8 8 8 9 9 9 8 7 8 8 6 6 6 6 5 4 4 5 7 7 8 8 7 7 8 7 9 8 5 6 5 2 3 4 5 6 5 9 14 10 5 12 14 9 8 15 18 14 11 11 7 7 13 14 15 19 16 20 30 23 10 16 12 3 13 18 16 14 20 24 11 14 18 8 15 20 17 19 14 11 12 12 11 13 10
8 8 7 8 8 9 9 10 9 8 8 8 8 6 6 6 5 5 4 5 6 7 7 8 8 6 8 7 6 9 7 5 5 4 4 4 5 5 6 6 8 15 12 5 9 14 9 7 14 18 15 11 10 9 6 6 9 14 20 17 15 22 22 14 12 10 4 8 12 13 12 12 22 15 7 18 10 3 18 21 16 16 13 12 14 12 13 12
8 7 7 8 8 9 9 10 9 8 8 8 8 6 6 6 5 5 4 5 6 7 8 8 7 6 8 7 7 10 6 5 5 4 6 5 4 5 6 6 8 17 16 6 7 12 9 5 12 19 18 12 9 12 7 3 7 11 13 14 16 16 17 18 11 9 10 12 14 9 9 8 16 15 4 15 14 6 23 26 16 16 14 14 16 13 12 14
8 7 7 7 8 10 10 10 9 9 8 8 8 6 6 6 4 5 4 6 7 7 8 7 6 7 8 7 8 9 6 6 5 4 6 5 5 5 7 5 7 19 17 6 5 9 10 7 10 17 19 14 10 14 9 3 6 11 14 13 18 18 14 15 5 -2 5 16 16 8 13 11 11 21 13 12 9 1 20 29 23 20 14 15 20 17 14 14
7 6 6 7 8 10 10 11 10 9 9 8 8 6 6 5 4 5 5 6 7 7 8 6 6 7 8 8 8 8 6 6 4 4 6 5 6 5 7 4 6 19 16 6 5 7 11 9 7 14 20 17 13 15 12 7 5 7 16 16 16 17 13 15 4 -8 1 15 14 3 11 14 13 23 17 16 9 -9 6 25 29 27 16 16 22 15 13 13
7 6 6 6 8 10 11 12 10 9 9 8 8 6 6 5 5 4 5 7 7 8 8 6 7 8 7 8 9 7 6 7 5 5 7 6 6 5 7 5 6 17 14 6 5 5 12 10 6 11 18 18 15 17 13 10 8 4 13 20 16 15 12 9 3 1 4 8 11 5 9 14 12 15 12 15 13 1 9 23 26 27 21 19 18 11 12 12
6 5 5 6 8 10 11 12 11 10 8 8 8 6 6 5 5 4 6 8 7 7 7 6 7 8 8 8 10 9 7 6 5 6 7 5 5 4 7 6 6 14 13 8 5 4 11 9 7 10 14 17 15 18 15 10 11 7 12 19 14 11 7 1 5 14 10 5 8 4 7 12 10 13 13 10 11 10 12 17 20 23 22 19 17 12 11 12
6 5 5 6 7 10 11 12 11 10 8 8 7 6 6 5 5 5 6 8 7 6 6 6 6 7 9 9 10 9 6 6 6 6 6 5 5 5 7 7 6 13 14 10 6 4 8 8 8 10 11 14 14 17 16 11 13 13 14 14 14 15 9 5 11 16 13 11 8 2 4 7 7 12 12 9 11 12 13 15 17 21 21 19 18 10 11 19
5 5 5 5 8 10 11 12 11 9 9 8 7 6 6 6 5 5 6 7 7 7 7 6 7 7 8 10 11 9 6 6 6 5 6 5 5 5 6 7 7 11 13 13 11 6 6 7 8 9 10 11 12 16 15 11 11 13 13 12 17 21 15 11 12 8 8 10 7 6 7 3 7 12 8 10 8 10 19 17 15 20 21 18 18 13 14 21
5 5 5 5 8 9 11 12 11 10 9 7 7 6 6 6 6 7 7 7 7 7 7 7 7 7 8 11 12 10 7 6 6 5 7 6 5 7 7 7 9 9 11 15 15 9 6 7 9 9 9 9 10 13 14 11 8 9 11 13 15 15 16 17 12 6 6 11 14 15 13 6 7 8 7 10 8 10 18 18 16 21 25 18 16 21 22 23
5 5 4 5 8 9 11 12 11 10 9 8 8 5 5 6 6 7 7 7 7 7 8 8 7 7 7 11 13 10 7 6 6 6 7 6 5 8 8 5 7 8 9 12 10 10 9 7 10 9 5 6 6 8 13 13 8 7 10 14 14 11 16 20 9 1 2 9 15 14 13 11 8 8 9 10 11 11 9 16 15 12 26 22 18 29 26 30
5 5 4 5 7 9 11 11 12 10 8 8 7 5 6 6 6 7 6 6 5 6 9 6 6 7 6 11 13 9 7 7 7 6 6 7 5 8 8 4 6 7 9 10 7 11 12 7 11 11 6 8 9 7 12 15 9 9 12 13 14 12 11 11 5 4 5 7 10 7 7 10 10 9 13 17 13 -0 -5 15 24 13 20 20 22 31 25 36
6 5 4 5 7 9 11 11 12 10 8 8 6 7 5 5 8 6 6 8 4 6 9 6 7 7 6 12 13 9 9 7 5 6 5 6 6 8 8 4 5 7 9 10 8 13 15 10 12 14 12 11 12 12 13 12 7 6 12 13 14 15 13 10 12 16 12 7 9 9 2 4 11 11 17 23 8 -10 -5 18 29 17 16 17 19 23 25 34
5 5 4 5 7 8 10 12 11 9 9 8 6 7 5 6 8 4 6 9 5 5 7 7 8 7 7 11 10 8 9 4 4 5 5 6 7 8 8 5 5 6 8 11 11 15 16 12 11 14 17 10 6 11 12 9 4 2 10 14 14 14 13 12 17 20 15 9 9 11 4 1 10 12 16 19 4 0 13 23 23 20 27 26 23 40 53 40
5 5 4 5 6 8 10 11 10 9 9 7 6 6 5 7 7 6 8 8 6 7 6 6 8 8 9 10 8 8 6 4 5 5 4 7 9 8 8 7 7 6 7 8 10 13 14 12 8 8 15 13 6 9 11 8 6 6 9 11 13 15 12 13 16 13 9 9 8 8 7 5 4 2 7 17 17 17 17 18 22 24 28 18 15 54 76 58
5 5 4 5 6 8 9 10 11 11 9 8 7 6 6 8 7 7 7 6 9 9 5 5 5 7 10 8 8 8 5 5 6 4 4 7 10 8 6 9 8 5 5 6 8 12 10 9 7 6 10 14 11 9 11 10 6 7 10 10 10 14 14 15 15 9 6 7 7 5 6 7 2 -4 -2 8 18 17 10 11 15 13 14 9 12 38 44 33
5 5 4 4 6 8 9 9 11 11 10 9 8 7 8 8 7 6 6 8 9 5 5 7 5 8 11 8 9 8 6 7 6 5 6 9 12 7 5 9 9 6 4 3 7 12 10 7 8 7 8 12 12 9 12 16 9 4 9 10 9 11 14 15 12 10 11 11 9 7 8 10 9 5 2 4 11 11 7 7 6 7 9 9 19 26 15 9
6 5 4 4 6 8 9 10 10 10 10 10 8 8 8 7 7 7 8 10 7 2 6 8 5 8 9 9 11 8 7 9 8 8 8 11 13 6 4 8 7 9 6 -0 4 9 10 11 9 7 8 9 9 6 7 16 16 9 7 9 10 10 11 15 14 9 9 9 10 9 9 10 10 7 5 7 11 9 7 6 4 8 9 3 12 19 9 6
6 5 4 4 5 7 9 10 10 10 10 10 9 7 8 8 9 10 8 7 5 5 7 6 5 7 7 10 12 9 9 10 9 10 8 12 12 5 4 5 5 11 9 1 3 6 9 12 9 8 9 8 7 6 5 9 14 14 11 8 7 7 8 12 11 6 7 10 12 10 7 7 6 5 8 9 8 7 8 9 5 7 11 7 9 13 10 12
6 5 4 4 5 6 9 9 9 10 9 9 9 8 8 8 9 11 8 6 7 7 6 6 6 6 7 10 12 9 8 8 8 9 9 11 10 5 5 6 4 6 7 3 3 6 9 9 9 10 12 12 10 9 8 8 11 12 12 12 7 3 8 13 11 9 13 14 11 8 5 8 7 5 10 11 7 6 8 9 9 11 13 12 13 13 10 11
6 5 3 3 4 6 8 9 9 10 10 9 9 8 9 9 10 10 7 5 6 6 6 7 6 6 7 9 10 10 9 8 8 9 9 9 9 5 5 7 6 3 5 6 3 7 8 5 8 10 9 15 18 12 9 10 11 9 8 11 14 8 6 12 15 15 16 13 9 7 9 11 10 9 12 12 9 10 11 13 15 14 12 13 15 15 12 11
6 5 3 3 4 6 7 9 9 9 9 9 9 9 10 10 10 9 7 6 6 6 7 7 6 7 7 6 9 11 9 9 8 9 11 11 9 6 3 5 7 3 5 7 4 6 8 5 9 10 5 13 21 15 10 8 8 15 14 9 11 11 6 9 14 13 11 10 8 10 15 14 14 17 16 11 12 13 13 15 16 11 8 10 10 8 8 7
7 5 3 3 3 5 7 8 8 9 9 9 10 10 10 9 9 8 7 6 6 6 7 8 7 7 7 6 8 10 10 10 9 9 12 11 9 8 5 5 6 3 3 7 6 6 7 5 8 11 6 8 16 13 10 10 8 16 23 16 13 13 9 9 14 12 8 5 7 13 16 11 14 18 11 6 12 13 9 9 10 8 6 7 7 8 10 9
7 5 3 3 3 4 6 7 8 8 9 10 10 10 10 9 8 8 7 6 6 7 7 8 7 6 5 7 10 10 9 10 10 10 11 10 8 8 8 8 9 5 3 7 7 6 8 7 7 11 8 5 11 12 11 11 8 10 16 16 16 17 12 9 13 13 6 1 5 14 14 8 10 15 8 6 11 9 5 4 4 7 8 7 7 6 7 8
7 6 4 3 3 4 4 6 7 8 9 9 10 11 11 9 9 8 8 7 6 6 6 7 7 6 5 6 8 9 8 8 9 9 8 9 9 7 6 8 9 7 6 6 8 7 8 7 6 9 10 6 7 11 12 8 7 11 12 10 14 18 16 13 13 14 10 7 9 13 15 12 11 14 9 5 6 4 4 5 4 6 7 5 6 5 5 5
7 7 4 3 2 3 4 5 6 7 8 9 10 11 11 10 10 9 8 7 6 5 5 6 6 6 6 5 6 8 8 7 8 8 8 9 9 7 6 8 8 9 8 5 6 8 8 7 5 7 10 7 4 9 14 11 9 10 9 10 16 17 13 10 10 11 11 13 12 10 13 14 13 12 6 -0 1 3 7 9 7 6 6 5 5 6 7 6
7 7 5 3 2 2 3 3 5 5 7 9 10 10 11 10 9 8 8 7 6 4 5 6 6 6 6 6 6 8 8 8 8 9 9 9 9 9 8 8 9 9 9 5 5 7 7 6 6 6 8 6 4 8 14 14 9 7 6 8 15 19 15 12 10 8 8 11 11 9 9 11 12 9 0 0 6 7 6 6 4 5 7 8 7 6 7 6
7 8 6 4 2 2 2 2 3 4 5 7 9 10 11 11 10 9 8 7 6 5 5 5 7 7 6 6 7 8 8 9 9 9 8 8 8 9 9 10 9 9 10 8 5 5 6 6 6 7 7 5 6 8 12 13 6 6 9 5 10 16 11 13 17 10 6 8 8 7 6 8 11 7 3 6 7 7 6 1 0 4 4 5 8 6 6 4
6 7 7 5 3 1 1 2 2 2 4 6 8 10 11 11 10 9 9 8 7 6 5 5 6 6 6 5 6 8 8 7 8 9 9 8 7 6 6 8 8 8 9 10 7 5 6 6 6 7 7 5 7 6 9 13 8 7 10 7 10 9 -0 9 20 13 9 10 7 7 8 8 10 7 7 7 -1 -0 6 2 1 6 3 3 8 7 6 4
6 7 8 6 4 1 1 2 2 2 4 5 6 9 12 12 11 10 9 8 7 6 6 7 6 7 7 6 5 6 7 6 7 8 7 7 7 5 5 6 7 7 7 8 9 7 7 6 4 6 7 5 7 6 7 13 12 8 8 7 9 9 3 9 14 10 13 14 9 10 10 10 11 6 5 5 -2 0 7 3 4 7 4 4 7 6 5 6
6 7 9 8 5 2 1 1 2 2 3 4 5 8 10 12 11 10 9 8 8 8 7 7 7 6 5 4 6 7 6 7 7 7 6 6 7 7 7 7 6 7 8 8 10 9 7 7 4 6 8 4 4 7 7 10 12 11 10 8 7 8 10 11 11 11 12 9 9 11 7 6 10 8 8 8 5 8 11 9 7 7 7 9 11 11 8 7
6 6 8 10 7 4 2 1 2 2 2 3 3 6 10 12 12 11 10 9 9 7 7 8 7 6 6 5 5 6 6 6 5 6 6 5 6 7 8 7 7 8 9 8 10 10 8 8 7 6 7 6 5 7 6 7 11 11 10 10 9 7 8 9 12 13 9 6 9 8 7 11 11 9 13 13 13 16 16 16 15 10 11 16 19 21 14 7
7 7 8 10 9 6 3 2 1 2 3 3 3 6 10 12 12 11 10 10 9 7 6 7 7 7 8 8 8 10 11 9 7 7 8 6 6 7 8 8 8 9 10 9 9 11 9 8 7 5 5 6 4 4 6 9 11 10 10 11 9 7 9 9 8 10 10 10 10 5 9 18 15 10 12 13 16 18 14 13 14 10 9 15 19 21 16 9
6 7 8 9 10 8 5 4 3 2 3 3 3 6 8 11 11 11 11 10 10 9 6 7 8 7 7 9 10 11 10 9 8 8 9 9 9 8 7 7 7 8 11 12 10 10 11 8 6 5 5 6 6 4 6 8 8 9 10 11 7 6 10 10 8 8 9 11 11 8 9 13 13 12 11 8 10 13 9 7 8 8 9 10 12 13 12 11
6 7 8 8 10 10 7 5 4 2 3 3 4 6 8 10 11 10 10 9 9 9 8 8 9 7 6 8 8 7 6 9 11 11 11 11 9 7 6 5 5 6 8 11 12 11 11 9 7 5 4 6 8 7 5 5 6 9 9 9 8 5 5 8 11 9 8 12 14 10 7 7 8 11 11 9 8 9 9 8 7 8 10 9 10 10 8 8
6 7 9 8 9 11 9 8 6 4 5 5 4 6 8 11 11 9 9 8 7 8 9 8 9 8 6 5 6 7 7 8 11 12 13 11 7 5 5 5 5 6 6 8 11 11 11 11 9 6 4 6 7 8 7 5 4 7 9 8 7 7 3 6 12 8 4 13 17 9 6 8 7 6 8 10 9 8 9 9 7 7 8 8 8 8 7 8
6 7 9 9 8 9 9 9 9 8 8 6 3 5 8 10 10 9 8 8 7 6 6 6 7 10 9 7 8 10 11 10 10 11 12 11 8 5 4 4 6 7 6 7 11 12 11 12 12 10 7 6 6 7 9 7 3 3 8 8 6 8 7 7 12 9 2 7 14 11 8 10 8 5 4 5 7 7 6 7 7 8 8 6 6 7 8 8
6 6 8 10 9 9 8 7 8 7 6 5 3 5 9 10 11 10 8 8 7 7 7 7 8 9 9 10 12 12 11 8 7 10 13 12 9 7 5 5 6 7 8 8 10 13 12 11 12 12 10 8 7 7 8 9 7 3 5 8 6 7 8 6 10 11 3 1 8 10 8 7 6 3 -0 0 3 4 5 6 6 7 7 6 6 6 5 4
6 7 8 9 9 9 9 8 8 7 5 4 4 6 9 10 10 10 8 8 8 8 8 8 7 6 7 9 11 10 7 4 5 13 17 13 10 9 7 6 7 8 9 8 8 10 11 12 12 11 12 11 9 8 7 9 9 5 4 8 8 8 9 5 5 10 7 1 4 9 9 6 4 4 4 3 3 4 5 6 7 8 8 7 7 6 5 5
6 7 7 9 9 9 10 9 8 7 5 4 4 6 9 10 10 9 8 9 9 9 8 7 6 7 8 9 9 8 9 11 14 16 16 12 11 10 8 6 6 7 9 7 7 9 10 12 12 10 11 12 10 9 7 7 8 6 7 11 9 6 11 9 4 7 9 6 4 7 9 6 3 4 5 4 4 5 6 7 7 7 6 5 5 6 7 7
Height
5835 5834 5834 5834 5834 5834 5834 5833 5833 5832 5832 5831 5830 5829 5828 5827 5827 5826 5825 5825 5825 5823 5822 5820 5819 5817 5816 5815 5813 5812 5810 5809 5807 5805 5803 5802 5800 5798 5796 5794 5791 5788 5785 5782 5779 5775 5772 5768 5765 5761 5757 5754 5751 5748 5745 5742 5739 5736 5733 5730 5727 5723 5720 5717 5715 5713 5711 5710 5709 5710 5711 5712 5714 5717 5720 5724 5728 5732 5736 5740 5745 5749 5753 5758 5762 5765 5767 5772
5833 5833 5833 5833 5833 5833 5833 5832 5832 5831 5831 5830 5829 5828 5827 5826 5826 5825 5825 5824 5824 5823 5821 5819 5818 5816 5815 5813 5812 5810 5809 5807 5805 5804 5802 5800 5798 5796 5794 5792 5789 5786 5783 5780 5776 5773 5769 5766 5762 5758 5754 5751 5748 5745 5742 5739 5736 5733 5730 5727 5724 5721 5717 5714 5712 5710 5708 5707 5706 5707 5708 5709 5710 5713 5716 5720 5724 5728 5732 5736 5741 5745 5750 5754 5758 5761 5765 5770
5832 5832 5832 5831 5831 5831 5831 5831 5831 5830 5830 5829 5828 5827 5827 5826 5825 5824 5824 5823 5823 5822 5820 5819 5817 5815 5814 5812 5810 5809 5807 5806 5804 5802 5800 5798 5796 5794 5792 5789 5787 5783 5780 5777 5774 5771 5767 5763 5759 5755 5752 5748 5745 5742 5739 5736 5734 5730 5727 5724 5721 5719 5715 5712 5709 5707 5705 5703 5703 5703 5704 5705 5707 5709 5712 5716 5721 5726 5729 5733 5737 5741 5746 5751 5754 5758 5762 5766
5831 5830 5830 5830 5830 5830 5830 5830 5829 5829 5828 5828 5827 5826 5826 5825 5824 5823 5823 5822 5822 5821 5820 5818 5816 5814 5813 5811 5809 5807 5806 5804 5802 5801 5799 5797 5795 5793 5790 5787 5785 5781 5778 5775 5772 5769 5765 5761 5757 5753 5750 5747 5743 5740 5737 5734 5731 5728 5725 5722 5719 5716 5713 5710 5707 5704 5702 5701 5700 5700 5700 5701 5703 5706 5708 5712 5718 5722 5725 5729 5733 5737 5742 5747 5751 5757 5760 5762
5829 5829 5828 5828 5828 5828 5829 5829 5828 5828 5827 5827 5826 5825 5825 5824 5823 5823 5822 5821 5821 5820 5819 5817 5815 5813 5812 5810 5808 5806 5805 5803 5801 5799 5798 5795 5793 5791 5789 5786 5783 5780 5776 5773 5770 5766 5763 5759 5755 5752 5749 5745 5742 5739 5736 5732 5729 5726 5723 5720 5716 5714 5711 5708 5705 5702 5700 5699 5698 5698 5698 5699 5701 5703 5706 5710 5715 5718 5722 5726 5731 5736 5740 5745 5750 5756 5757 5760
5827 5827 5827 5827 5827 5827 5827 5827 5827 5826 5826 5826 5825 5824 5823 5823 5822 5822 5821 5820 5820 5819 5818 5816 5814 5812 5811 5809 5807 5805 5804 5802 5800 5798 5796 5794 5792 5790 5787 5784 5781 5778 5775 5772 5768 5764 5761 5757 5753 5750 5747 5743 5740 5737 5734 5731 5728 5724 5721 5718 5715 5712 5710 5707 5704 5701 5698 5697 5696 5696 5697 5699 5700 5701 5704 5708 5711 5716 5720 5725 5730 5735 5739 5744 5749 5753 5754 5759
5826 5826 5825 5825 5825 5825 5826 5826 5826 5825 5825 5825 5824 5824 5822 5822 5821 5821 5820 5819 5819 5818 5816 5815 5813 5811 5809 5808 5806 5805 5803 5801 5799 5797 5795 5793 5791 5788 5786 5783 5779 5776 5774 5770 5766 5763 5759 5756 5752 5749 5746 5742 5739 5736 5733 5730 5726 5723 5720 5717 5714 5712 5708 5705 5702 5699 5697 5696 5695 5695 5696 5698 5699 5700 5703 5706 5710 5715 5719 5724 5729 5733 5737 5742 5748 5750 5753 5759
5824 5824 5824 5824 5824 5824 5824 5824 5824 5824 5824 5823 5823 5822 5822 5821 5820 5820 5819 5818 5817 5817 5815 5814 5812 5810 5808 5807 5805 5804 5802 5800 5798 5796 5794 5792 5789 5787 5784 5781 5778 5775 5772 5768 5765 5761 5758 5754 5751 5748 5745 5742 5739 5736 5732 5729 5725 5722 5719 5717 5714 5711 5708 5704 5701 5698 5696 5695 5695 5695 5695 5697 5697 5700 5703 5705 5709 5714 5718 5723 5728 5731 5736 5741 5745 5748 5751 5757
5823 5822 5822 5822 5822 5822 5823 5823 5823 5823 5822 5822 5822 5821 5821 5820 5819 5819 5818 5817 5816 5815 5814 5812 5811 5809 5807 5805 5804 5802 5801 5799 5797 5795 5792 5790 5788 5785 5782 5779 5776 5773 5770 5767 5763 5760 5756 5753 5750 5747 5744 5741 5738 5735 5731 5728 5725 5721 5719 5716 5714 5711 5707 5704 5702 5699 5696 5695 5695 5696 5696 5697 5698 5701 5703 5706 5710 5714 5718 5722 5726 5729 5734 5739 5742 5745 5750 5755
5821 5821 5821 5820 5820 5821 5821 5821 5821 5821 5821 5821 5821 5820 5820 5819 5818 5818 5817 5816 5815 5814 5813 5811 5810 5808 5806 5804 5803 5801 5799 5797 5796 5793 5791 5789 5786 5784 5781 5778 5775 5772 5769 5765 5762 5759 5756 5752 5749 5746 5744 5741 5738 5735 5731 5727 5724 5721 5719 5716 5713 5711 5708 5705 5703 5700 5698 5697 5697 5697 5697 5698 5699 5702 5704 5708 5712 5715 5718 5722 5725 5728 5733 5737 5740 5744 5748 5753
5819 5819 5819 5819 5819 5819 5819 5820 5820 5820 5820 5820 5819 5819 5818 5818 5817 5817 5816 5815 5814 5813 5812 5810 5808 5807 5805 5803 5801 5800 5798 5796 5794 5792 5790 5788 5785 5782 5779 5777 5774 5771 5768 5765 5761 5758 5755 5752 5749 5746 5743 5741 5738 5734 5731 5727 5724 5721 5719 5716 5714 5712 5710 5707 5705 5702 5701 5700 5699 5699 5699 5700 5702 5704 5706 5709 5713 5714 5717 5721 5724 5728 5732 5735 5739 5743 5747 5753
5818 5818 5818 5818 5817 5817 5818 5818 5818 5818 5818 5818 5818 5818 5817 5817 5816 5816 5815 5814 5813 5812 5811 5809 5807 5806 5804 5802 5800 5799 5797 5795 5793 5791 5789 5787 5784 5781 5778 5776 5773 5770 5767 5764 5761 5758 5755 5752 5749 5746 5743 5741 5738 5735 5731 5728 5725 5722 5719 5716 5714 5713 5711 5709 5707 5704 5702 5702 5701 5701 5702 5702 5704 5707 5708 5711 5713 5715 5719 5722 5725 5728 5731 5735 5738 5743 5747 5752
5816 5816 5816 5816 5816 5816 5816 5816 5816 5816 5817 5817 5817 5816 5816 5815 5815 5814 5814 5813 5812 5811 5810 5808 5806 5805 5803 5801 5799 5798 5795 5794 5792 5790 5788 5786 5783 5780 5778 5775 5772 5769 5766 5763 5761 5758 5755 5751 5748 5746 5743 5741 5738 5735 5732 5729 5726 5723 5720 5718 5715 5714 5712 5710 5708 5705 5703 5704 5704 5703 5704 5705 5707 5709 5711 5714 5716 5718 5720 5723 5725 5727 5731 5734 5738 5743 5748 5753
5815 5815 5815 5815 5815 5815 5815 5815 5815 5815 5815 5815 5815 5815 5814 5814 5814 5813 5813 5812 5811 5810 5808 5807 5805 5804 5802 5800 5798 5796 5794 5793 5791 5789 5787 5785 5783 5780 5777 5774 5771 5768 5765 5763 5760 5758 5754 5751 5749 5746 5743 5741 5738 5735 5733 5730 5727 5724 5721 5719 5717 5715 5713 5711 5709 5706 5705 5705 5705 5706 5706 5707 5709 5710 5713 5716 5718 5720 5722 5724 5726 5728 5731 5735 5739 5744 5749 5753
5813 5813 5813 5813 5813 5813 5814 5813 5813 5813 5813 5814 5814 5814 5813 5813 5813 5812 5812 5811 5810 5808 5807 5806 5804 5803 5801 5799 5797 5795 5793 5792 5790 5788 5786 5784 5782 5779 5776 5773 5771 5768 5765 5762 5760 5758 5755 5752 5749 5746 5743 5741 5739 5736 5733 5731 5729 5726 5723 5721 5719 5717 5714 5712 5710 5709 5708 5707 5707 5709 5709 5709 5710 5712 5715 5717 5720 5722 5723 5725 5727 5729 5732 5735 5739 5744 5749 5753
5811 5812 5812 5812 5812 5812 5812 5812 5812 5811 5812 5812 5813 5812 5812 5812 5812 5811 5810 5810 5808 5807 5806 5805 5803 5802 5800 5798 5797 5795 5793 5791 5790 5788 5786 5784 5781 5779 5776 5773 5770 5767 5765 5762 5760 5757 5754 5752 5749 5746 5743 5741 5739 5736 5734 5732 5731 5728 5725 5723 5722 5719 5717 5715 5712 5710 5710 5709 5709 5712 5711 5711 5712 5714 5716 5718 5721 5723 5724 5726 5728 5730 5733 5736 5740 5745 5749 5753
5810 5810 5810 5810 5810 5810 5811 5811 5810 5810 5810 5811 5811 5811 5811 5811 5810 5810 5809 5808 5807 5806 5805 5804 5802 5801 5799 5798 5796 5794 5792 5791 5789 5787 5786 5783 5781 5778 5776 5773 5770 5767 5765 5763 5760 5758 5755 5752 5750 5747 5744 5742 5740 5737 5735 5733 5732 5731 5728 5726 5723 5721 5719 5716 5714 5712 5711 5711 5712 5713 5713 5713 5714 5716 5717 5719 5722 5724 5726 5728 5729 5731 5734 5737 5741 5746 5750 5753
5808 5808 5809 5809 5809 5809 5809 5809 5808 5808 5808 5809 5809 5809 5809 5809 5809 5809 5808 5807 5806 5805 5804 5803 5801 5800 5798 5797 5795 5793 5792 5790 5789 5787 5785 5783 5781 5778 5776 5773 5770 5767 5765 5763 5761 5758 5756 5753 5751 5748 5745 5742 5740 5738 5736 5735 5733 5732 5730 5727 5725 5722 5720 5718 5716 5715 5714 5714 5714 5714 5715 5714 5715 5716 5718 5720 5722 5724 5727 5729 5730 5731 5734 5737 5741 5745 5748 5752
5806 5807 5807 5807 5807 5807 5807 5807 5807 5806 5807 5807 5808 5808 5808 5808 5808 5807 5807 5806 5805 5804 5803 5802 5800 5799 5797 5796 5795 5793 5792 5790 5788 5787 5785 5783 5781 5779 5776 5774 5770 5767 5764 5763 5761 5759 5757 5754 5752 5749 5746 5743 5741 5739 5737 5735 5734 5732 5731 5729 5726 5724 5722 5721 5719 5717 5716 5716 5716 5716 5716 5716 5716 5718 5719 5721 5723 5724 5727 5729 5730 5732 5734 5737 5740 5743 5746 5750
5804 5805 5805 5805 5805 5805 5806 5806 5805 5805 5805 5805 5806 5806 5806 5806 5806 5806 5806 5805 5804 5803 5802 5801 5799 5798 5797 5795 5794 5792 5791 5790 5788 5786 5785 5784 5781 5779 5776 5774 5771 5768 5765 5763 5761 5759 5757 5755 5753 5750 5747 5745 5742 5740 5738 5736 5734 5733 5732 5730 5727 5725 5724 5723 5722 5720 5719 5719 5718 5718 5718 5718 5718 5719 5721 5722 5723 5725 5727 5729 5730 5732 5734 5737 5739 5742 5745 5749
5803 5803 5803 5804 5804 5804 5804 5804 5804 5804 5804 5804 5804 5805 5805 5805 5805 5805 5805 5804 5803 5802 5801 5800 5799 5797 5796 5795 5793 5792 5790 5789 5788 5786 5785 5784 5782 5779 5776 5774 5771 5769 5766 5764 5762 5760 5758 5756 5753 5751 5748 5746 5744 5741 5739 5737 5735 5734 5733 5731 5729 5727 5726 5726 5724 5723 5722 5721 5720 5720 5720 5720 5720 5721 5722 5723 5724 5726 5728 5729 5730 5732 5735 5737 5739 5741 5744 5747
5801 5801 5801 5802 5802 5802 5802 5803 5802 5802 5802 5802 5803 5804 5804 5804 5804 5804 5803 5803 5802 5801 5800 5799 5798 5797 5795 5794 5793 5792 5790 5789 5788 5786 5785 5784 5782 5779 5776 5774 5771 5769 5767 5765 5763 5760 5758 5756 5754 5751 5749 5747 5744 5743 5740 5738 5736 5735 5734 5732 5730 5729 5729 5727 5726 5726 5725 5723 5722 5722 5722 5723 5723 5724 5724 5724 5726 5727 5728 5729 5730 5732 5735 5737 5739 5741 5743 5745
5799 5799 5800 5800 5800 5801 5801 5801 5801 5801 5801 5801 5802 5802 5803 5803 5803 5802 5802 5802 5801 5801 5799 5798 5797 5796 5795 5794 5792 5791 5790 5789 5787 5786 5785 5784 5782 5779 5776 5774 5771 5769 5767 5765 5763 5761 5759 5756 5754 5752 5749 5747 5745 5744 5742 5739 5737 5736 5735 5734 5732 5732 5731 5729 5729 5728 5727 5726 5725 5724 5724 5725 5725 5725 5726 5726 5727 5729 5730 5730 5731 5733 5736 5738 5740 5742 5744 5746
5797 5798 5798 5798 5798 5799 5799 5799 5800 5800 5799 5799 5800 5801 5801 5801 5801 5801 5801 5801 5800 5800 5798 5797 5797 5795 5794 5793 5792 5791 5790 5788 5787 5785 5785 5784 5782 5779 5777 5774 5772 5770 5767 5765 5763 5761 5759 5756 5754 5752 5750 5748 5746 5745 5743 5740 5738 5737 5737 5736 5734 5734 5733 5731 5731 5730 5729 5728 5727 5727 5726 5726 5727 5727 5728 5728 5729 5731 5732 5732 5733 5735 5737 5739 5741 5742 5744 5746
5795 5796 5796 5796 5796 5797 5798 5798 5798 5798 5798 5798 5799 5799 5799 5800 5800 5800 5800 5800 5799 5798 5797 5796 5796 5795 5794 5792 5791 5790 5789 5788 5787 5785 5784 5783 5782 5780 5778 5775 5773 5770 5768 5766 5764 5762 5759 5757 5755 5753 5751 5749 5747 5745 5744 5742 5740 5740 5739 5737 5736 5735 5735 5734 5732 5732 5731 5730 5730 5729 5729 5729 5729 5729 5729 5730 5731 5733 5734 5734 5735 5736 5738 5739 5741 5743 5745 5745
5793 5794 5795 5795 5795 5795 5796 5796 5796 5796 5797 5797 5797 5798 5798 5798 5798 5798 5798 5799 5798 5797 5796 5795 5795 5794 5793 5792 5791 5790 5789 5788 5786 5785 5784 5783 5782 5780 5778 5776 5773 5771 5769 5767 5765 5763 5760 5758 5756 5754 5752 5750 5748 5746 5745 5743 5742 5741 5741 5739 5738 5737 5736 5735 5734 5733 5733 5733 5732 5731 5731 5732 5731 5731 5731 5732 5733 5734 5736 5736 5736 5737 5739 5740 5742 5743 5743 5742
5791 5791 5792 5793 5793 5793 5794 5794 5794 5795 5795 5796 5796 5797 5797 5797 5797 5796 5797 5798 5797 5796 5795 5795 5794 5793 5792 5791 5790 5789 5788 5787 5786 5784 5783 5783 5782 5780 5778 5776 5774 5772 5770 5768 5766 5763 5762 5759 5756 5754 5753 5750 5749 5748 5746 5745 5743 5743 5742 5741 5740 5739 5738 5737 5736 5735 5734 5735 5735 5734 5734 5734 5734 5733 5734 5734 5735 5737 5738 5739 5739 5740 5741 5743 5743 5741 5740 5741
5788 5789 5790 5791 5792 5792 5792 5792 5793 5793 5794 5794 5795 5795 5795 5796 5796 5795 5796 5796 5795 5794 5794 5793 5793 5792 5791 5790 5789 5788 5787 5786 5785 5784 5783 5782 5781 5780 5778 5776 5775 5773 5771 5769 5767 5765 5762 5760 5757 5755 5753 5751 5750 5749 5748 5746 5745 5744 5743 5742 5741 5740 5739 5738 5737 5737 5736 5737 5737 5736 5736 5737 5738 5737 5738 5738 5739 5740 5741 5742 5743 5744 5744 5745 5745 5743 5743 5747
5786 5787 5788 5789 5790 5790 5790 5790 5791 5791 5792 5793 5793 5794 5794 5794 5794 5794 5795 5794 5794 5793 5793 5792 5792 5791 5790 5789 5788 5787 5786 5785 5784 5783 5782 5782 5781 5780 5778 5776 5775 5773 5772 5770 5768 5766 5764 5761 5759 5757 5755 5754 5752 5750 5749 5747 5746 5745 5744 5743 5742 5742 5741 5740 5739 5739 5739 5740 5739 5738 5738 5740 5741 5741 5741 5742 5743 5744 5744 5745 5746 5746 5747 5747 5747 5748 5749 5752
5784 5785 5786 5787 5788 5788 5788 5788 5789 5789 5790 5791 5792 5792 5793 5793 5793 5793 5793 5793 5792 5792 5792 5791 5790 5790 5789 5788 5788 5786 5786 5785 5784 5782 5782 5781 5781 5779 5778 5776 5775 5774 5772 5770 5769 5767 5765 5763 5761 5758 5756 5755 5754 5752 5750 5748 5747 5747 5746 5745 5743 5743 5743 5742 5742 5741 5742 5742 5742 5741 5741 5742 5743 5744 5744 5745 5745 5746 5747 5748 5748 5749 5749 5750 5751 5752 5753 5755
5782 5783 5784 5785 5785 5786 5786 5787 5787 5787 5788 5789 5790 5790 5791 5792 5792 5792 5792 5791 5791 5791 5790 5790 5789 5788 5788 5787 5787 5786 5785 5784 5783 5782 5781 5781 5780 5779 5778 5776 5775 5774 5772 5770 5769 5767 5765 5763 5761 5759 5757 5756 5754 5753 5751 5750 5749 5748 5747 5746 5744 5744 5744 5744 5744 5744 5744 5745 5745 5744 5744 5745 5745 5746 5747 5747 5747 5748 5749 5750 5751 5752 5752 5752 5754 5755 5757 5759
5780 5781 5782 5783 5783 5784 5785 5785 5785 5785 5786 5787 5788 5789 5790 5790 5791 5791 5790 5789 5790 5789 5789 5788 5787 5787 5787 5786 5786 5785 5784 5783 5783 5782 5781 5780 5780 5779 5778 5777 5776 5775 5773 5771 5769 5768 5766 5764 5762 5760 5758 5756 5755 5754 5752 5751 5750 5749 5748 5747 5746 5746 5746 5746 5746 5746 5746 5747 5747 5746 5746 5746 5747 5748 5749 5749 5749 5750 5751 5752 5753 5754 5754 5755 5757 5758 5760 5762
5778 5779 5780 5781 5781 5782 5783 5783 5783 5784 5784 5785 5786 5787 5788 5789 5789 5789 5788 5788 5788 5788 5787 5787 5786 5786 5786 5785 5785 5784 5783 5783 5782 5781 5780 5780 5779 5779 5778 5777 5776 5775 5773 5772 5770 5769 5767 5765 5763 5761 5759 5757 5756 5754 5753 5752 5751 5750 5749 5749 5748 5748 5748 5747 5748 5748 5748 5748 5748 5748 5748 5748 5749 5750 5750 5751 5752 5752 5753 5753 5755 5756 5757 5758 5760 5761 5763 5764
5775 5777 5778 5779 5780 5780 5781 5781 5781 5782 5782 5783 5784 5785 5787 5787 5787 5787 5787 5786 5786 5786 5786 5785 5785 5785 5784 5784 5784 5783 5783 5782 5781 5780 5780 5779 5779 5778 5778 5777 5776 5775 5774 5772 5771 5769 5768 5766 5764 5762 5760 5758 5757 5756 5754 5753 5752 5751 5750 5749 5748 5748 5748 5748 5749 5749 5750 5750 5750 5749 5749 5749 5750 5751 5752 5753 5753 5754 5754 5755 5756 5758 5760 5761 5762 5764 5765 5767
5773 5775 5776 5777 5778 5778 5779 5779 5780 5780 5781 5781 5783 5784 5785 5785 5786 5785 5785 5785 5785 5784 5784 5784 5784 5784 5783 5782 5782 5782 5782 5781 5781 5780 5779 5779 5778 5777 5777 5776 5776 5775 5774 5772 5771 5770 5768 5767 5765 5763 5761 5759 5758 5756 5755 5754 5753 5752 5751 5750 5749 5749 5749 5749 5750 5750 5751 5751 5751 5751 5751 5752 5752 5753 5754 5755 5755 5756 5756 5757 5758 5760 5761 5762 5763 5765 5767 5768
5770 5772 5774 5775 5776 5777 5777 5777 5778 5778 5779 5780 5781 5782 5783 5783 5784 5784 5783 5783 5783 5783 5782 5783 5783 5783 5782 5781 5781 5781 5780 5780 5780 5779 5779 5778 5777 5776 5776 5775 5775 5774 5774 5773 5772 5770 5769 5767 5766 5764 5762 5761 5759 5757 5756 5755 5754 5753 5752 5751 5750 5751 5751 5750 5751 5751 5752 5752 5752 5752 5752 5753 5754 5755 5756 5757 5758 5758 5759 5759 5760 5762 5762 5763 5765 5766 5768 5770
5768 5769 5771 5773 5774 5775 5775 5776 5776 5777 5777 5778 5779 5780 5781 5782 5782 5782 5782 5782 5781 5781 5781 5781 5782 5782 5781 5780 5780 5779 5779 5779 5779 5778 5778 5777 5776 5776 5775 5774 5774 5774 5773 5772 5772 5770 5769 5767 5766 5765 5763 5762 5760 5759 5757 5756 5756 5754 5753 5753 5752 5752 5752 5752 5752 5753 5753 5754 5753 5753 5754 5755 5755 5756 5757 5758 5759 5761 5761 5762 5763 5764 5765 5765 5767 5768 5770 5771
5765 5767 5769 5770 5772 5773 5773 5774 5774 5775 5775 5776 5778 5778 5779 5779 5780 5780 5780 5780 5780 5780 5779 5780 5780 5780 5780 5779 5779 5778 5778 5778 5778 5777 5777 5776 5775 5775 5774 5773 5773 5773 5773 5772 5771 5770 5769 5767 5766 5765 5764 5763 5761 5760 5759 5758 5757 5756 5755 5754 5754 5753 5753 5753 5754 5754 5755 5755 5756 5755 5756 5757 5757 5758 5759 5760 5760 5762 5763 5764 5765 5766 5767 5768 5769 5770 5772 5773
5762 5764 5766 5767 5769 5770 5771 5772 5773 5773 5774 5775 5776 5776 5777 5777 5778 5778 5778 5778 5778 5778 5778 5778 5779 5779 5779 5778 5777 5777 5776 5776 5776 5776 5776 5775 5775 5774 5773 5773 5772 5772 5772 5771 5771 5770 5769 5768 5767 5766 5765 5764 5763 5761 5761 5760 5759 5758 5757 5756 5755 5755 5754 5754 5755 5755 5756 5756 5758 5758 5758 5758 5759 5759 5760 5761 5761 5763 5765 5765 5766 5768 5769 5770 5771 5772 5773 5774
5759 5761 5763 5764 5766 5768 5769 5770 5771 5771 5772 5773 5773 5774 5774 5775 5775 5776 5776 5776 5776 5777 5777 5777 5777 5777 5777 5777 5776 5776 5775 5775 5775 5775 5774 5774 5774 5773 5772 5772 5772 5771 5771 5771 5770 5769 5769 5768 5767 5766 5765 5764 5763 5762 5762 5761 5760 5759 5758 5758 5757 5756 5756 5756 5756 5756 5757 5757 5758 5760 5760 5760 5760 5761 5762 5762 5763 5765 5766 5766 5768 5769 5770 5771 5772 5773 5775 5776
5756 5758 5760 5762 5764 5765 5767 5768 5769 5769 5770 5771 5771 5772 5772 5773 5773 5773 5774 5774 5774 5775 5775 5775 5775 5775 5775 5775 5775 5774 5774 5774 5773 5773 5773 5773 5772 5772 5771 5771 5770 5770 5770 5770 5769 5769 5768 5768 5767 5767 5766 5765 5764 5763 5762 5761 5761 5760 5759 5759 5758 5758 5758 5758 5758 5758 5758 5758 5758 5760 5761 5761 5761 5762 5763 5764 5765 5766 5767 5768 5768 5770 5771 5772 5773 5774 5775 5776
5753 5755 5757 5759 5761 5763 5764 5766 5767 5767 5768 5769 5769 5770 5770 5771 5771 5771 5772 5772 5772 5773 5773 5773 5773 5773 5773 5773 5773 5773 5773 5772 5772 5772 5771 5771 5771 5771 5770 5770 5769 5769 5769 5769 5769 5768 5768 5768 5767 5767 5766 5765 5765 5764 5763 5762 5762 5761 5760 5759 5759 5759 5758 5758 5759 5759 5759 5759 5759 5760 5761 5761 5762 5763 5764 5765 5766 5766 5767 5768 5768 5770 5771 5772 5773 5774 5775 5775
5750 5752 5754 5756 5758 5760 5762 5763 5764 5765 5766 5766 5767 5767 5768 5768 5769 5769 5769 5770 5770 5770 5771 5770 5770 5771 5771 5771 5771 5771 5771 5771 5770 5770 5770 5769 5769 5769 5769 5768 5768 5768 5768 5768 5768 5767 5767 5767 5767 5767 5766 5765 5765 5765 5764 5763 5763 5762 5761 5760 5760 5760 5760 5760 5760 5760 5760 5760 5760 5760 5761 5762 5763 5764 5765 5765 5766 5766 5766 5767 5768 5769 5770 5771 5772 5773 5774 5774
5747 5749 5751 5753 5755 5757 5759 5761 5762 5763 5764 5764 5765 5765 5766 5766 5767 5767 5767 5768 5768 5768 5768 5768 5768 5768 5768 5768 5769 5769 5769 5769 5768 5768 5768 5768 5768 5768 5767 5767 5767 5767 5767 5767 5767 5766 5766 5767 5767 5767 5766 5765 5765 5765 5764 5764 5763 5762 5762 5762 5761 5761 5761 5761 5761 5761 5761 5761 5761 5761 5761 5762 5763 5764 5765 5765 5766 5766 5766 5766 5768 5769 5769 5770 5771 5772 5773 5773
5744 5746 5748 5750 5752 5754 5756 5758 5759 5760 5761 5762 5763 5763 5763 5764 5764 5765 5765 5766 5766 5766 5766 5766 5766 5766 5766 5766 5767 5767 5767 5767 5766 5766 5766 5766 5766 5766 5766 5766 5765 5765 5765 5765 5765 5765 5765 5766 5766 5766 5766 5765 5764 5764 5764 5764 5764 5763 5762 5763 5762 5762 5762 5762 5762 5762 5762 5762 5762 5762 5762 5762 5763 5764 5764 5765 5766 5766 5766 5767 5768 5769 5770 5770 5771 5772 5773 5773
5741 5743 5745 5747 5749 5751 5754 5755 5756 5758 5759 5760 5761 5761 5761 5761 5762 5762 5763 5763 5763 5763 5763 5764 5764 5764 5764 5764 5765 5765 5764 5764 5764 5764 5764 5764 5764 5764 5764 5764 5764 5764 5764 5764 5764 5764 5764 5765 5765 5765 5765 5764 5764 5764 5763 5763 5763 5763 5763 5763 5763 5762 5762 5762 5762 5762 5762 5762 5763 5763 5762 5763 5763 5764 5765 5765 5766 5767 5767 5768 5769 5770 5771 5771 5772 5773 5774 5774
5738 5740 5742 5744 5746 5748 5751 5752 5754 5755 5756 5758 5759 5759 5759 5759 5759 5760 5760 5760 5760 5761 5761 5761 5762 5762 5762 5762 5762 5762 5762 5762 5762 5762 5762 5762 5762 5762 5762 5762 5762 5762 5762 5762 5762 5763 5763 5763 5764 5764 5764 5764 5764 5763 5763 5763 5763 5763 5763 5763 5763 5763 5763 5763 5762 5762 5762 5763 5763 5763 5764 5764 5764 5765 5766 5767 5768 5769 5769 5770 5770 5771 5772 5772 5773 5774 5775 5776
5734 5737 5739 5741 5744 5746 5747 5749 5751 5752 5754 5755 5756 5757 5757 5757 5757 5757 5757 5757 5758 5758 5759 5759 5759 5759 5759 5760 5760 5760 5760 5759 5759 5759 5759 5759 5759 5760 5760 5760 5760 5760 5760 5760 5761 5761 5761 5762 5762 5763 5763 5763 5763 5763 5763 5763 5763 5763 5763 5763 5763 5763 5763 5763 5763 5763 5763 5764 5764 5764 5765 5765 5765 5766 5766 5768 5769 5770 5770 5771 5772 5772 5773 5774 5774 5775 5776 5776
5731 5734 5736 5738 5741 5742 5744 5746 5748 5750 5751 5753 5754 5754 5755 5755 5754 5754 5754 5754 5755 5756 5756 5757 5757 5757 5757 5757 5757 5757 5757 5757 5756 5756 5757 5757 5757 5757 5758 5758 5758 5758 5758 5759 5759 5759 5760 5760 5761 5761 5761 5761 5762 5762 5762 5762 5762 5762 5763 5763 5763 5763 5763 5763 5764 5763 5764 5764 5765 5765 5765 5766 5766 5766 5767 5768 5769 5770 5771 5772 5772 5773 5774 5774 5774 5775 5776 5777
5728 5731 5733 5735 5738 5740 5742 5744 5745 5747 5749 5750 5751 5752 5752 5752 5752 5751 5752 5752 5753 5753 5754 5754 5754 5754 5754 5754 5754 5754 5754 5754 5753 5754 5754 5755 5755 5755 5755 5756 5756 5756 5756 5757 5757 5758 5758 5759 5759 5759 5760 5760 5761 5761 5761 5761 5761 5761 5761 5761 5762 5762 5763 5763 5763 5763 5764 5764 5765 5765 5766 5766 5766 5767 5767 5768 5769 5770 5771 5771 5772 5773 5774 5774 5775 5775 5776 5777
5725 5728 5730 5733 5735 5737 5739 5741 5743 5745 5746 5747 5748 5749 5749 5749 5749 5749 5749 5750 5750 5751 5751 5751 5751 5751 5751 5751 5752 5752 5751 5751 5751 5751 5752 5752 5752 5753 5753 5754 5754 5754 5755 5755 5755 5756 5756 5757 5758 5758 5758 5759 5759 5759 5760 5760 5760 5760 5760 5760 5761 5761 5762 5762 5763 5763 5763 5764 5764 5765 5765 5765 5766 5766 5767 5768 5768 5769 5770 5771 5772 5773 5773 5774 5775 5775 5775 5776
5722 5725 5727 5730 5732 5734 5736 5738 5740 5742 5744 5745 5745 5746 5746 5746 5746 5746 5747 5747 5748 5748 5748 5749 5749 5749 5749 5749 5749 5749 5748 5748 5748 5749 5749 5750 5750 5751 5751 5752 5752 5752 5753 5753 5754 5754 5755 5755 5756 5756 5757 5757 5758 5758 5758 5758 5758 5759 5759 5759 5760 5760 5761 5761 5762 5762 5763 5763 5764 5764 5765 5765 5765 5766 5766 5767 5768 5769 5770 5771 5772 5772 5773 5773 5774 5775 5776 5776